Weather in Tverdysh

Russia / Kurgan Oblast     55°44′43″N   64°29′45″E
temp.,
°C
wind,
m/s
gust,
m/s
humid.,
%
clouds,
%
prec.,
mm/h
press.,
hPa
HPBL,
m
11 april, sun
sun1123:00+2s389796 0.1 1039330
02:00+3s41096100 0.0 1038411
05:00+2s41097100 0.0 1038378
08:00+3s41195100 0.0 1038337
11:00+7ssw5979100 0.0 1038444
14:00+9ssw51067100 0.0 1036547
17:00+9ssw51175100 0.0 1036520
20:00+6ssw4128215 0.0 1035304
12 april, mon
mon1223:00+5ssw4138468 0.0 1035285
02:00+4sw4129072 0.0 1034257
05:00+3sw379499 0.0 1035117
08:00+6w2588100 0.0 1035139
11:00+10nw3587100 0.0 1035432
14:00+7nw2596100 0.1 1036227
17:00+11nnw2571100 0.1 1036233
20:00+7n2482100 0.0 103878
13 april, tue
tue1323:00+6nne2486100 0.0 103968
02:00+4ne22820 0.0 104022
05:00+2ene22780 0.0 104110
08:00+5e12695 0.0 104195
11:00+10sse11530 0.0 1040617
14:00+13ssw22450 0.0 1039974
17:00+13ssw23470 0.0 1038915
20:00+8ssw22710 0.0 103719
14 april, wed
wed1423:00+7ssw35780 0.0 103670
02:00+6ssw37826 0.0 1035102
05:00+5ssw3886100 0.0 1034132
08:00+8sw398032 0.0 1033245
11:00+14sw466639 0.0 1031614
14:00+17wsw46585 0.0 10291124
17:00+17wsw465435 0.0 10271325
20:00+12wsw22735 0.0 102626
15 april, thu
thu1523:00+10sw34835 0.0 102567
02:00+9wsw35905 0.0 102489
05:00+7wsw249236 0.0 102364
08:00+10w367011 0.0 1023189
11:00+15w36445 0.0 1021721
14:00+17w45345 0.0 10201222
17:00+17wnw34375 0.0 10191216
20:00+12w22565 0.0 101810